Weather History for Yakima, WA

Change the Weather History Date:

Wednesday, April 3, 2013

  Actual Average Record
Temperature  
Mean Temperature 54 °F 47 °F  
Max Temperature 72 °F 61 °F 75 °F (2000)
Min Temperature 35 °F 33 °F 21 °F (1972)
Degree Days  
Heating Degree Days 11 18  
Month to date heating degree days 26 54  
Since 1 July heating degree days 4584 5258  
Cooling Degree Days 0 0  
Month to date cooling degree days 0 0  
Year to date cooling degree days 0 0  
Growing Degree Days 4 (Base 50)    
Moisture  
Dew Point 36 °F    
Average Humidity 54    
Maximum Humidity 82    
Minimum Humidity 25    
Precipitation  
Precipitation 0.00 in 0.02 in 0.12 in (2001)
Month to date precipitation 0.00 0.05  
Year to date precipitation 0.90 2.59  
Snow  
Snow 0.00 in 0.00 in T in (2006)
Month to date snowfall 0.0 0.0  
Year to date snowfall 1.1 8.6  
Since 1 July snowfall 15.3 21.6  
Snow Depth 0.00 in    
Sea Level Pressure  
Sea Level Pressure 30.05 in    
Wind  
Wind Speed 4 mph (WSW)    
Max Wind Speed 10 mph    
Max Gust Speed 15 mph    
Visibility 10 miles    
Events      
T = Trace of Precipitation, MM = Missing Value Source: NWS Daily Summary

Daily Weather History Graph

Daily Weather History Graph

Search for Another Location

Airport:

Trip Planner

Search our weather history database for the weather conditions in past years. The results will help you decide how hot, cold, wet, or windy it might be!

Date:

Astronomy

Apr. 03, 2013 Rise Set
Actual Time 6:37 AM PDT 7:34 PM PDT
Civil Twilight 6:06 AM PDT 8:05 PM PDT
Nautical Twilight 5:29 AM PDT 8:42 PM PDT
Astronomical Twilight 4:51 AM PDT 9:20 PM PDT
Moon 2:44 AM PDT (4/3) 12:30 PM PDT (4/3)
Length of Visible Light 13h 58m
Length of Day
12h 57m
Last Quarter, 43% of the Moon is Illuminated
Apr 3
Last Quarter
Apr 10
New
Apr 18
First Quarter
Apr 25
Full
May 2
Last Quarter

Hourly Weather History & Observations

Time (PDT) Temp. Windchill Dew Point Humidity Pressure Visibility Wind Dir Wind Speed Gust Speed Precip Events Conditions
12:53 AM 48.9 °F - 37.9 °F 66% 30.08 in 10.0 mi NW 3.5 mph - N/A   Clear
1:53 AM 48.0 °F - 37.9 °F 68% 30.09 in 10.0 mi West 5.8 mph - N/A   Clear
2:53 AM 48.0 °F - 37.0 °F 66% 30.09 in 10.0 mi Calm Calm - N/A   Clear
3:53 AM 44.1 °F - 35.1 °F 71% 30.09 in 10.0 mi Calm Calm - N/A   Clear
4:53 AM 44.1 °F 40.8 °F 34.0 °F 68% 30.10 in 10.0 mi SW 5.8 mph - N/A   Clear
5:53 AM 37.9 °F 32.1 °F 32.0 °F 79% 30.11 in 10.0 mi West 8.1 mph - N/A   Clear
6:53 AM 36.0 °F 31.1 °F 30.9 °F 82% 30.12 in 10.0 mi West 5.8 mph - N/A   Clear
7:53 AM 43.0 °F - 35.1 °F 74% 30.12 in 10.0 mi Calm Calm - N/A   Clear
8:53 AM 53.1 °F - 36.0 °F 52% 30.11 in 10.0 mi West 3.5 mph - N/A   Clear
9:53 AM 57.0 °F - 36.0 °F 45% 30.10 in 10.0 mi Calm Calm - N/A   Clear
10:53 AM 63.0 °F - 37.0 °F 38% 30.09 in 10.0 mi Calm Calm - N/A   Clear
11:53 AM 64.9 °F - 35.1 °F 33% 30.08 in 10.0 mi Variable 4.6 mph - N/A   Clear
12:53 PM 66.0 °F - 34.0 °F 30% 30.06 in 10.0 mi Variable 5.8 mph - N/A   Clear
1:53 PM 69.1 °F - 33.1 °F 26% 30.05 in 10.0 mi Calm Calm - N/A   Clear
2:53 PM 70.0 °F - 34.0 °F 27% 30.04 in 10.0 mi SE 6.9 mph - N/A   Clear
3:53 PM 71.1 °F - 33.1 °F 25% 30.01 in 10.0 mi Variable 4.6 mph - N/A   Clear
4:53 PM 70.0 °F - 34.0 °F 27% 30.00 in 10.0 mi South 5.8 mph - N/A   Clear
5:53 PM 70.0 °F - 35.1 °F 28% 29.99 in 10.0 mi East 3.5 mph - N/A   Clear
6:53 PM 68.0 °F - 37.0 °F 32% 29.98 in 10.0 mi Calm Calm - N/A   Clear
7:53 PM 63.0 °F - 37.9 °F 40% 29.97 in 10.0 mi Calm Calm - N/A   Clear
8:53 PM 57.9 °F - 39.9 °F 51% 29.97 in 10.0 mi West 3.5 mph - N/A   Clear
9:53 PM 57.9 °F - 39.0 °F 49% 29.97 in 10.0 mi WSW 5.8 mph - N/A   Scattered Clouds
10:53 PM 54.0 °F - 39.9 °F 59% 29.96 in 10.0 mi West 9.2 mph - N/A   Clear
11:53 PM 51.1 °F - 39.9 °F 66% 29.96 in 10.0 mi West 6.9 mph - N/A   Partly Cloudy